Erie, CO

4:21 PM MST on December 14, 2017 (GMT -0700)
Erie Municipal Airport

Weather History for KEIK - September, 2012

Change the Weather History Date:

Sunday, September 30, 2012

  Actual Average (KBJC) Record (KBJC)
Temperature  
Mean Temperature 62 °F -  
Max Temperature 76 °F 67 °F 87 °F (1989)
Min Temperature 49 °F 45 °F 21 °F (1985)
Degree Days  
Heating Degree Days 2    
Growing Degree Days 12 (Base 50)    
Moisture  
Dew Point 41 °F    
Average Humidity 52    
Maximum Humidity 85    
Minimum Humidity 19    
Precipitation  
Precipitation 0.00 in - - ()
Sea Level Pressure  
Sea Level Pressure 30.18 in    
Wind  
Wind Speed 3 mph (NNW)    
Max Wind Speed 18 mph    
Max Gust Speed 23 mph    
Visibility 10 miles    
Events Rain    
Averages and records for this station are not official NWS values.
T = Trace of Precipitation, MM = Missing Value Source: NWS Daily Summary

Daily Weather History Graph

Daily Weather History Graph

Search for Another Location

Airport or City:

Trip Planner

Search our weather history database for the weather conditions in past years. The results will help you decide how hot, cold, wet, or windy it might be!

Date:

Astronomy

Sep. 30, 2012 Rise Set
Actual Time 6:56 AM MDT 6:43 PM MDT
Civil Twilight 6:29 AM MDT 7:10 PM MDT
Nautical Twilight 5:57 AM MDT 7:41 PM MDT
Astronomical Twilight 5:25 AM MDT 8:13 PM MDT
Moon 6:48 PM MDT (9/30) 7:29 AM MDT (9/30)
Length of Visible Light 12h 41m
Length of Day
11h 47m
Full, 100% of the Moon is Illuminated
Sep 30
Full
Oct 8
Last Quarter
Oct 15
New
Oct 21
First Quarter
Oct 29
Full

Hourly Weather History & Observations

Time (MDT) Temp. Dew Point Humidity Pressure Visibility Wind Dir Wind Speed Gust Speed Precip Events Conditions
12:14 AM 54.9 °F 43.5 °F 66% 30.17 in 10.0 mi Calm Calm - N/A   Clear
12:34 AM 55.6 °F 43.0 °F 63% 30.17 in 10.0 mi SSW 4.6 mph - N/A   Clear
12:54 AM 56.1 °F 43.5 °F 63% 30.17 in 10.0 mi SW 3.5 mph - N/A   Clear
1:14 AM 55.8 °F 44.1 °F 65% 30.17 in 10.0 mi SSW 3.5 mph - N/A   Clear
1:34 AM 55.8 °F 44.2 °F 65% 30.17 in 10.0 mi Calm Calm - N/A   Scattered Clouds
1:54 AM 54.9 °F 44.6 °F 68% 30.17 in 10.0 mi Calm Calm - N/A   Scattered Clouds
2:14 AM 52.9 °F 45.7 °F 77% 30.17 in 10.0 mi Calm Calm - N/A   Scattered Clouds
2:34 AM 54.0 °F 45.5 °F 73% 30.15 in 10.0 mi South 3.5 mph - N/A   Clear
2:54 AM 54.5 °F 44.6 °F 69% 30.15 in 10.0 mi Calm Calm - N/A   Clear
3:14 AM 52.9 °F 45.5 °F 76% 30.15 in 10.0 mi Calm Calm - N/A   Scattered Clouds
3:54 AM 52.5 °F 46.2 °F 79% 30.15 in 10.0 mi Calm Calm - N/A   Clear
4:14 AM 52.3 °F 46.4 °F 80% 30.14 in 10.0 mi Calm Calm - N/A   Clear
4:34 AM 51.3 °F 46.4 °F 83% 30.15 in 10.0 mi Calm Calm - N/A   Clear
4:54 AM 50.9 °F 46.4 °F 85% 30.14 in 10.0 mi Calm Calm - N/A   Clear
5:14 AM 50.7 °F 45.1 °F 81% 30.14 in 10.0 mi Calm Calm - N/A   Clear
5:34 AM 50.5 °F 44.6 °F 80% 30.15 in 10.0 mi Calm Calm - N/A   Clear
5:54 AM 49.1 °F 44.6 °F 84% 30.15 in 10.0 mi Calm Calm - N/A   Clear
6:14 AM 50.7 °F 45.0 °F 81% 30.15 in 10.0 mi WSW 3.5 mph - N/A   Clear
6:34 AM 50.0 °F 45.7 °F 85% 30.16 in 10.0 mi Calm Calm - N/A   Scattered Clouds
6:54 AM 50.9 °F 46.0 °F 83% 30.17 in 10.0 mi Calm Calm - N/A   Overcast
7:14 AM 51.3 °F 45.7 °F 81% 30.17 in 10.0 mi Calm Calm - N/A   Scattered Clouds
7:34 AM 51.4 °F 45.5 °F 80% 30.17 in 10.0 mi SW 4.6 mph - N/A   Scattered Clouds
7:54 AM 53.2 °F 45.9 °F 76% 30.18 in 10.0 mi Calm Calm - N/A   Scattered Clouds
8:14 AM 55.2 °F 46.4 °F 72% 30.19 in 10.0 mi West 3.5 mph - N/A   Scattered Clouds
8:34 AM 58.3 °F 45.1 °F 62% 30.20 in 10.0 mi Calm Calm - N/A   Clear
8:54 AM 60.8 °F 44.6 °F 55% 30.21 in 10.0 mi Calm Calm - N/A   Clear
9:14 AM 63.3 °F 39.9 °F 42% 30.21 in 10.0 mi Calm Calm - N/A   Clear
9:34 AM 65.3 °F 38.1 °F 37% 30.21 in 10.0 mi NW 3.5 mph - N/A   Clear
9:54 AM 67.5 °F 39.4 °F 36% 30.21 in 10.0 mi NNW 8.1 mph - N/A   Clear
10:14 AM 69.8 °F 38.3 °F 32% 30.21 in 10.0 mi North 11.5 mph - N/A   Clear
10:34 AM 71.6 °F 35.8 °F 27% 30.21 in 10.0 mi North 11.5 mph 20.7 mph N/A   Clear
10:54 AM 72.5 °F 34.2 °F 25% 30.21 in 10.0 mi North 13.8 mph 20.7 mph N/A   Clear
11:14 AM 73.0 °F 34.5 °F 24% 30.21 in 10.0 mi North 13.8 mph 21.9 mph N/A   Clear
11:34 AM 72.9 °F 34.3 °F 24% 30.20 in 10.0 mi NNE 13.8 mph 19.6 mph N/A   Clear
11:54 AM 73.9 °F 34.3 °F 24% 30.20 in 10.0 mi North 12.7 mph 23.0 mph N/A   Clear
12:14 PM 73.8 °F 33.4 °F 23% 30.19 in 10.0 mi NNE 17.3 mph 23.0 mph N/A   Clear
12:34 PM 74.8 °F 32.9 °F 22% 30.19 in 10.0 mi NNE 18.4 mph 23.0 mph N/A   Clear
12:54 PM 75.6 °F 32.2 °F 20% 30.18 in 10.0 mi NE 13.8 mph 23.0 mph N/A   Clear
1:14 PM 75.2 °F 33.1 °F 21% 30.17 in 10.0 mi NNE 10.4 mph 18.4 mph N/A   Clear
1:34 PM 76.3 °F 33.3 °F 21% 30.17 in 10.0 mi NNE 10.4 mph 23.0 mph N/A   Scattered Clouds
2:14 PM 75.4 °F 32.0 °F 20% 30.16 in 10.0 mi North 4.6 mph - N/A   Mostly Cloudy
2:34 PM 75.7 °F 31.6 °F 20% 30.16 in 10.0 mi North 5.8 mph - N/A   Mostly Cloudy
2:54 PM 76.5 °F 31.8 °F 20% 30.15 in 10.0 mi North 5.8 mph - N/A   Mostly Cloudy
3:14 PM 76.8 °F 31.5 °F 19% 30.15 in 10.0 mi North 5.8 mph - N/A   Mostly Cloudy
3:34 PM 73.2 °F 31.8 °F 22% 30.14 in 10.0 mi NE 4.6 mph - N/A   Mostly Cloudy
3:54 PM 74.5 °F 32.9 °F 22% 30.14 in 10.0 mi Calm Calm - N/A   Overcast
4:14 PM 75.7 °F 33.4 °F 21% 30.14 in 10.0 mi NNE 4.6 mph - N/A   Overcast
4:34 PM 76.1 °F 32.2 °F 20% 30.14 in 10.0 mi WNW 3.5 mph - N/A   Mostly Cloudy
4:54 PM 73.8 °F 36.1 °F 25% 30.14 in 10.0 mi WNW 8.1 mph - N/A   Scattered Clouds
5:14 PM 74.8 °F 33.8 °F 22% 30.14 in 10.0 mi WSW 3.5 mph - N/A   Clear
5:34 PM 72.9 °F 35.6 °F 26% 30.14 in 10.0 mi Calm Calm - N/A   Scattered Clouds
5:54 PM 70.7 °F 37.4 °F 30% 30.14 in 10.0 mi West 6.9 mph - N/A   Mostly Cloudy
6:14 PM 69.6 °F 36.5 °F 30% 30.15 in 10.0 mi West 8.1 mph - N/A   Overcast
6:34 PM 68.0 °F 38.1 °F 33% 30.17 in 10.0 mi North 8.1 mph - N/A Rain Light Rain
7:14 PM 64.2 °F 39.4 °F 40% 30.18 in 10.0 mi Calm Calm - N/A   Scattered Clouds
7:34 PM 62.2 °F 41.2 °F 46% 30.18 in 10.0 mi Calm Calm - N/A   Clear
7:54 PM 57.9 °F 45.1 °F 62% 30.18 in 10.0 mi SW 3.5 mph - N/A   Clear
8:14 PM 56.1 °F 47.5 °F 73% 30.19 in 10.0 mi SSW 3.5 mph - N/A   Clear
8:34 PM 56.7 °F 47.8 °F 72% 30.19 in 10.0 mi SSW 3.5 mph - N/A   Scattered Clouds
8:54 PM 57.7 °F 46.8 °F 67% 30.20 in 10.0 mi Calm Calm - N/A   Mostly Cloudy
9:14 PM 58.1 °F 45.3 °F 62% 30.20 in 10.0 mi Calm Calm - N/A   Scattered Clouds
9:34 PM 58.5 °F 44.6 °F 60% 30.20 in 10.0 mi South 3.5 mph - N/A   Scattered Clouds
10:14 PM 57.9 °F 45.9 °F 64% 30.21 in 10.0 mi Calm Calm - N/A   Mostly Cloudy
10:34 PM 58.3 °F 45.1 °F 62% 30.21 in 10.0 mi Calm Calm - N/A   Mostly Cloudy
10:54 PM 57.2 °F 45.9 °F 66% 30.21 in 10.0 mi Calm Calm - N/A   Mostly Cloudy
11:14 PM 57.6 °F 45.5 °F 64% 30.21 in 10.0 mi Calm Calm - N/A   Mostly Cloudy
11:34 PM 55.6 °F 47.7 °F 75% 30.24 in 10.0 mi NNE 10.4 mph - N/A   Mostly Cloudy
11:54 PM 60.3 °F 41.5 °F 50% 30.23 in 10.0 mi NE 12.7 mph 20.7 mph N/A Rain Light Rain